TimeCST,TemperatureF,Dew PointF,Humidity,Sea Level PressureIn,VisibilityMPH,Wind Direction,Wind SpeedMPH,Gust SpeedMPH,PrecipitationIn,Events,Conditions,WindDirDegrees,DateUTC
12:52 AM,43.0,26.1,51,30.17,10.0,SE,11.5,-,N/A,,Clear,140,2012-01-25 06:52:00
1:52 AM,43.0,26.1,51,30.16,10.0,ESE,9.2,-,N/A,,Clear,110,2012-01-25 07:52:00
2:52 AM,42.1,26.1,53,30.14,10.0,East,6.9,-,N/A,,Mostly Cloudy,100,2012-01-25 08:52:00
3:52 AM,39.9,30.9,70,30.15,10.0,SSE,12.7,17.3,0.00,Rain,Light Rain,150,2012-01-25 09:52:00
4:52 AM,37.9,35.1,89,30.18,5.0,SE,9.2,-,0.07,Rain,Rain,130,2012-01-25 10:52:00
5:16 AM,37.4,35.6,93,30.16,5.0,SE,9.2,-,0.06,Rain,Rain,130,2012-01-25 11:16:00
5:52 AM,37.9,36.0,93,30.16,6.0,ESE,10.4,-,0.14,Rain,Rain,120,2012-01-25 11:52:00
6:52 AM,37.4,37.4,100,30.15,4.0,SE,9.2,-,N/A,Rain,Heavy Rain,140,2012-01-25 12:52:00
7:52 AM,39.0,37.0,93,30.07,5.0,ESE,18.4,-,0.18,Rain,Light Rain,110,2012-01-25 13:52:00
8:52 AM,39.9,37.9,93,30.12,10.0,SE,11.5,-,0.03,Rain,Light Rain,140,2012-01-25 14:52:00
9:52 AM,42.1,39.0,89,30.13,10.0,ESE,10.4,-,0.00,Rain,Light Rain,120,2012-01-25 15:52:00
10:07 AM,42.8,39.2,87,30.12,10.0,SE,9.2,-,0.00,Rain,Light Rain,130,2012-01-25 16:07:00
10:52 AM,43.0,39.9,89,30.12,8.0,ESE,8.1,-,0.00,,Overcast,120,2012-01-25 16:52:00
11:24 AM,42.8,39.2,87,30.10,5.0,ESE,15.0,-,0.00,Rain,Light Rain,120,2012-01-25 17:24:00
11:39 AM,42.8,39.2,87,30.09,2.0,SE,10.4,-,0.00,Rain,Light Rain,130,2012-01-25 17:39:00
11:52 AM,42.1,39.9,92,30.10,2.5,ESE,8.1,-,0.01,Rain,Light Rain,110,2012-01-25 17:52:00
12:10 PM,42.8,39.2,87,30.07,2.5,SE,8.1,-,0.01,Rain,Light Rain,130,2012-01-25 18:10:00
12:21 PM,42.8,39.2,87,30.06,2.5,ESE,6.9,-,0.01,Rain,Light Rain,120,2012-01-25 18:21:00
12:35 PM,42.8,39.2,87,30.05,3.0,ESE,8.1,-,0.02,Rain,Light Rain,120,2012-01-25 18:35:00
12:52 PM,42.1,39.9,92,30.05,2.0,ESE,8.1,-,0.02,Rain,Light Rain,120,2012-01-25 18:52:00
1:07 PM,42.8,39.2,87,30.03,1.8,ESE,8.1,-,0.02,Rain,Light Rain,110,2012-01-25 19:07:00
1:23 PM,42.8,39.2,87,30.01,2.5,East,4.6,-,0.03,Rain,Light Rain,100,2012-01-25 19:23:00
1:40 PM,42.8,39.2,87,30.00,3.0,East,4.6,-,0.04,Rain,Light Rain,100,2012-01-25 19:40:00
1:44 PM,42.8,39.2,87,30.00,2.5,East,5.8,-,0.04,Rain,Light Rain,90,2012-01-25 19:44:00
1:52 PM,42.1,39.9,92,30.01,2.5,East,4.6,-,0.04,Rain,Light Rain,100,2012-01-25 19:52:00
2:04 PM,42.8,39.2,87,30.00,3.0,East,5.8,-,N/A,,Overcast,100,2012-01-25 20:04:00
2:22 PM,42.8,39.2,87,29.99,3.0,ENE,6.9,-,0.00,Rain,Light Rain,70,2012-01-25 20:22:00
2:24 PM,41.0,39.2,93,29.99,2.5,East,6.9,-,0.01,Rain,Light Rain,80,2012-01-25 20:24:00
2:52 PM,42.1,39.9,92,29.98,2.5,ENE,8.1,-,0.01,,Overcast,70,2012-01-25 20:52:00
3:02 PM,42.8,39.2,87,29.96,3.0,ENE,6.9,-,N/A,,Overcast,60,2012-01-25 21:02:00
3:10 PM,42.8,39.2,87,29.96,3.0,NE,4.6,-,N/A,,Overcast,50,2012-01-25 21:10:00
3:25 PM,42.8,39.2,87,29.95,1.8,NE,10.4,-,0.01,Rain,Light Rain,50,2012-01-25 21:25:00
3:45 PM,42.8,39.2,87,29.95,2.0,NE,10.4,-,0.02,Rain,Light Rain,40,2012-01-25 21:45:00
3:52 PM,42.8,39.2,87,29.95,2.5,NE,8.1,-,N/A,Rain,Light Rain,50,2012-01-25 21:52:00
4:30 PM,41.0,39.2,93,29.95,3.0,NE,10.4,-,0.02,Rain,Light Rain,40,2012-01-25 22:30:00
4:52 PM,41.0,39.9,96,29.96,3.0,ENE,9.2,-,0.02,Rain,Light Rain,60,2012-01-25 22:52:00
5:20 PM,41.0,39.2,93,29.93,10.0,ENE,12.7,23.0,0.01,Rain,Light Rain,70,2012-01-25 23:20:00
5:52 PM,41.0,39.0,93,29.94,10.0,ENE,11.5,-,0.01,,Overcast,60,2012-01-25 23:52:00
6:02 PM,41.0,39.2,93,29.92,10.0,East,13.8,-,N/A,,Overcast,80,2012-01-26 00:02:00
6:52 PM,41.0,39.0,93,29.95,7.0,ESE,16.1,-,0.02,Rain,Rain,110,2012-01-26 00:52:00
7:52 PM,41.0,37.9,89,29.93,10.0,ESE,10.4,-,0.06,Rain,Light Rain,120,2012-01-26 01:52:00
8:11 PM,41.0,39.2,93,29.93,6.0,Calm,Calm,-,0.01,Rain,Rain,0,2012-01-26 02:11:00
8:28 PM,41.0,39.2,93,29.92,4.0,North,8.1,-,0.05,Rain,Light Rain,360,2012-01-26 02:28:00
8:52 PM,39.9,39.0,97,29.96,9.0,North,5.8,-,0.06,Rain,Light Rain,360,2012-01-26 02:52:00
9:42 PM,39.2,39.2,100,29.93,7.0,NE,5.8,-,0.01,,Overcast,40,2012-01-26 03:42:00
9:52 PM,39.9,39.0,97,29.94,9.0,NE,8.1,-,0.01,,Overcast,40,2012-01-26 03:52:00
10:52 PM,39.9,37.9,93,29.91,10.0,NE,8.1,-,0.00,,Overcast,40,2012-01-26 04:52:00
11:52 PM,39.0,37.9,96,29.90,10.0,NE,8.1,-,0.00,,Overcast,40,2012-01-26 05:52:00